GLO1506 SBTE-SBSL

Flight info

Callsign GLO1506
Flight time 0h 38m
Altitude 24000
Route ESTEP UZ20 ELIET
Aircraft B737/M-SDE2E3FGHIRWXY/LB1

Departure

Time 2026-05-06 23:24
Airport Senador Petrônio Portela Airport (SBTE)

Arrival

Time 2026-05-07 00:02
Airport Marechal Cunha Machado International Airport (SBSL)
Time Latitude Longitude Altitude Speed Heading
2026-05-06 23:16 -5.06429 -42.82206 220 ft 0 kts 355°
2026-05-06 23:17 -5.06428 -42.82206 220 ft 1 kts 355°
2026-05-06 23:17 -5.06408 -42.82208 220 ft 4 kts 353°
2026-05-06 23:17 -5.06377 -42.82221 221 ft 5 kts 315°
2026-05-06 23:18 -5.06370 -42.82254 220 ft 5 kts 262°
2026-05-06 23:18 -5.06371 -42.82288 220 ft 5 kts 270°
2026-05-06 23:18 -5.06365 -42.82319 222 ft 5 kts 301°
2026-05-06 23:18 -5.06336 -42.82336 220 ft 5 kts 345°
2026-05-06 23:19 -5.06290 -42.82343 220 ft 8 kts 354°
2026-05-06 23:19 -5.06220 -42.82351 218 ft 12 kts 354°
2026-05-06 23:19 -5.06124 -42.82361 216 ft 16 kts 354°
2026-05-06 23:19 -5.06005 -42.82374 222 ft 19 kts 354°
2026-05-06 23:20 -5.05871 -42.82387 213 ft 21 kts 354°
2026-05-06 23:20 -5.05721 -42.82403 213 ft 23 kts 354°
2026-05-06 23:20 -5.05551 -42.82421 210 ft 26 kts 353°
2026-05-06 23:20 -5.05371 -42.82440 207 ft 26 kts 354°
2026-05-06 23:21 -5.05199 -42.82457 206 ft 22 kts 355°
2026-05-06 23:21 -5.05089 -42.82452 212 ft 11 kts 28°
2026-05-06 23:21 -5.05038 -42.82443 202 ft 6 kts 321°
2026-05-06 23:21 -5.05037 -42.82468 202 ft 4 kts 229°
2026-05-06 23:22 -5.05064 -42.82471 207 ft 4 kts 177°
2026-05-06 23:22 -5.05105 -42.82467 202 ft 0 kts 174°
2026-05-06 23:22 -5.05106 -42.82467 202 ft 0 kts 174°
2026-05-06 23:23 -5.05137 -42.82464 203 ft 25 kts 174°
2026-05-06 23:23 -5.05590 -42.82417 214 ft 105 kts 174°
2026-05-06 23:23 -5.06562 -42.82318 239 ft 171 kts 174°
2026-05-06 23:23 -5.07840 -42.82186 736 ft 193 kts 175°
2026-05-06 23:24 -5.09205 -42.82059 1394 ft 197 kts 174°
2026-05-06 23:24 -5.10558 -42.81926 2172 ft 193 kts 172°
2026-05-06 23:24 -5.11879 -42.81787 2860 ft 194 kts 172°
2026-05-06 23:24 -5.13222 -42.81645 3513 ft 194 kts 172°
2026-05-06 23:25 -5.14593 -42.81699 4229 ft 201 kts 195°
2026-05-06 23:25 -5.15777 -42.82483 4833 ft 219 kts 227°
2026-05-06 23:25 -5.16454 -42.83886 5525 ft 230 kts 257°
2026-05-06 23:25 -5.16405 -42.85501 6267 ft 243 kts 288°
2026-05-06 23:26 -5.15485 -42.87038 6673 ft 268 kts 309°
2026-05-06 23:26 -5.14463 -42.88501 8041 ft 238 kts 298°
2026-05-06 23:26 -5.13951 -42.89966 9462 ft 217 kts 290°
2026-05-06 23:26 -5.13027 -42.91261 9684 ft 244 kts 331°
2026-05-06 23:27 -5.11398 -42.91867 9989 ft 265 kts 348°
2026-05-06 23:27 -5.09536 -42.92338 9949 ft 277 kts 348°
2026-05-06 23:27 -5.07653 -42.92851 10023 ft 289 kts 346°
2026-05-06 23:27 -5.05624 -42.93466 10234 ft 319 kts 345°
2026-05-06 23:28 -5.03459 -42.94182 10582 ft 341 kts 343°
2026-05-06 23:28 -5.01192 -42.94988 11300 ft 348 kts 342°
2026-05-06 23:28 -4.98909 -42.95839 12178 ft 351 kts 341°
2026-05-06 23:28 -4.96619 -42.96717 13026 ft 354 kts 341°
2026-05-06 23:29 -4.94314 -42.97616 13812 ft 358 kts 340°
2026-05-06 23:29 -4.91973 -42.98538 14524 ft 362 kts 340°
2026-05-06 23:29 -4.89615 -42.99471 15234 ft 366 kts 340°
2026-05-06 23:29 -4.87235 -43.00415 15936 ft 370 kts 340°
2026-05-06 23:30 -4.84825 -43.01372 16643 ft 374 kts 340°
2026-05-06 23:30 -4.82394 -43.02337 17339 ft 378 kts 339°
2026-05-06 23:30 -4.79934 -43.03313 18019 ft 382 kts 339°
2026-05-06 23:30 -4.77449 -43.04299 18629 ft 386 kts 339°
2026-05-06 23:31 -4.74943 -43.05293 19230 ft 389 kts 339°
2026-05-06 23:31 -4.72448 -43.06283 19809 ft 392 kts 339°
2026-05-06 23:31 -4.69901 -43.07293 20385 ft 395 kts 339°
2026-05-06 23:31 -4.67298 -43.08326 20961 ft 399 kts 339°
2026-05-06 23:32 -4.64741 -43.09340 21500 ft 402 kts 338°
2026-05-06 23:32 -4.62126 -43.10377 22054 ft 406 kts 338°
2026-05-06 23:32 -4.59491 -43.11422 22594 ft 409 kts 338°
2026-05-06 23:32 -4.56836 -43.12474 23143 ft 411 kts 338°
2026-05-06 23:33 -4.54173 -43.13530 23711 ft 412 kts 338°
2026-05-06 23:33 -4.51489 -43.14594 23926 ft 415 kts 338°
2026-05-06 23:33 -4.48809 -43.15668 23944 ft 414 kts 336°
2026-05-06 23:33 -4.46238 -43.16981 23968 ft 415 kts 330°
2026-05-06 23:34 -4.43728 -43.18415 23971 ft 415 kts 329°
2026-05-06 23:34 -4.41270 -43.19849 23966 ft 415 kts 329°
2026-05-06 23:34 -4.38775 -43.21307 23970 ft 415 kts 329°
2026-05-06 23:34 -4.36277 -43.22758 23965 ft 415 kts 329°
2026-05-06 23:35 -4.33777 -43.24202 24931 ft 411 kts 330°
2026-05-06 23:35 -4.31317 -43.25614 24650 ft 403 kts 329°
2026-05-06 23:35 -4.28903 -43.26997 24402 ft 395 kts 329°
2026-05-06 23:35 -4.26533 -43.28352 24219 ft 387 kts 326°
2026-05-06 23:36 -4.24224 -43.29670 24115 ft 378 kts 326°
2026-05-06 23:36 -4.21935 -43.30979 24064 ft 379 kts 326°
2026-05-06 23:36 -4.19667 -43.32278 24020 ft 381 kts 326°
2026-05-06 23:36 -4.17363 -43.33596 24009 ft 381 kts 326°
2026-05-06 23:37 -4.15060 -43.34914 24008 ft 381 kts 326°
2026-05-06 23:37 -4.12759 -43.36230 24008 ft 381 kts 326°
2026-05-06 23:37 -4.10453 -43.37549 23996 ft 382 kts 326°
2026-05-06 23:37 -4.08145 -43.38869 23999 ft 382 kts 326°
2026-05-06 23:38 -4.05831 -43.40192 24004 ft 382 kts 326°
2026-05-06 23:38 -4.03521 -43.41513 24002 ft 383 kts 326°
2026-05-06 23:38 -4.01206 -43.42837 23999 ft 383 kts 326°
2026-05-06 23:38 -3.98891 -43.44163 24005 ft 384 kts 326°
2026-05-06 23:39 -3.96569 -43.45493 23998 ft 384 kts 326°
2026-05-06 23:39 -3.94249 -43.46822 24002 ft 384 kts 326°
2026-05-06 23:39 -3.91933 -43.48148 24002 ft 384 kts 326°
2026-05-06 23:39 -3.89607 -43.49481 23997 ft 384 kts 326°
2026-05-06 23:40 -3.87320 -43.50790 24000 ft 384 kts 326°
2026-05-06 23:40 -3.84999 -43.52119 23999 ft 383 kts 326°
2026-05-06 23:40 -3.82686 -43.53444 24015 ft 382 kts 326°
2026-05-06 23:40 -3.80380 -43.54764 24000 ft 382 kts 326°
2026-05-06 23:41 -3.78066 -43.56089 23997 ft 382 kts 326°
2026-05-06 23:41 -3.75760 -43.57410 23994 ft 383 kts 326°
2026-05-06 23:41 -3.73446 -43.58735 23998 ft 383 kts 326°
2026-05-06 23:41 -3.71127 -43.60063 24002 ft 383 kts 326°
2026-05-06 23:42 -3.68808 -43.61390 24006 ft 383 kts 326°
2026-05-06 23:42 -3.66491 -43.62716 24012 ft 383 kts 326°
2026-05-06 23:42 -3.64204 -43.64024 24007 ft 383 kts 326°
2026-05-06 23:42 -3.61917 -43.65326 23983 ft 373 kts 326°
2026-05-06 23:43 -3.59681 -43.66596 23992 ft 367 kts 326°
2026-05-06 23:43 -3.57471 -43.67852 23999 ft 365 kts 326°
2026-05-06 23:43 -3.55253 -43.69116 24016 ft 366 kts 326°
2026-05-06 23:43 -3.53030 -43.70383 23663 ft 368 kts 326°
2026-05-06 23:44 -3.50814 -43.71645 23236 ft 367 kts 326°
2026-05-06 23:44 -3.48607 -43.72901 22798 ft 361 kts 326°
2026-05-06 23:44 -3.46428 -43.74141 22288 ft 359 kts 326°
2026-05-06 23:44 -3.44275 -43.75366 21828 ft 354 kts 326°
2026-05-06 23:45 -3.42140 -43.76580 21355 ft 351 kts 326°
2026-05-06 23:45 -3.40028 -43.77783 20874 ft 347 kts 326°
2026-05-06 23:45 -3.37938 -43.78975 20367 ft 346 kts 328°
2026-05-06 23:45 -3.35850 -43.80164 19898 ft 345 kts 329°
2026-05-06 23:46 -3.33769 -43.81349 19421 ft 343 kts 329°
2026-05-06 23:46 -3.31701 -43.82526 18950 ft 342 kts 328°
2026-05-06 23:46 -3.29672 -43.83681 18494 ft 340 kts 330°
2026-05-06 23:46 -3.27609 -43.84856 17997 ft 339 kts 329°
2026-05-06 23:47 -3.25565 -43.86016 17562 ft 335 kts 326°
2026-05-06 23:47 -3.23539 -43.87170 17072 ft 333 kts 326°
2026-05-06 23:47 -3.21536 -43.88310 16600 ft 330 kts 326°
2026-05-06 23:47 -3.19549 -43.89441 16159 ft 326 kts 326°
2026-05-06 23:48 -3.17662 -43.90667 15677 ft 321 kts 317°
2026-05-06 23:48 -3.16571 -43.91647 15395 ft 315 kts 310°
2026-05-06 23:48 -3.15187 -43.93322 14943 ft 310 kts 304°
2026-05-06 23:48 -3.13923 -43.95053 14491 ft 307 kts 303°
2026-05-06 23:49 -3.12684 -43.96783 14053 ft 304 kts 302°
2026-05-06 23:49 -3.11460 -43.98495 13604 ft 302 kts 302°
2026-05-06 23:49 -3.10238 -44.00197 13170 ft 299 kts 302°
2026-05-06 23:49 -3.09024 -44.01882 12726 ft 297 kts 303°
2026-05-06 23:50 -3.07817 -44.03553 12292 ft 295 kts 303°
2026-05-06 23:50 -3.05426 -44.06854 11428 ft 291 kts 303°
2026-05-06 23:50 -3.04236 -44.08493 10988 ft 289 kts 303°
2026-05-06 23:51 -3.03061 -44.10112 10550 ft 287 kts 303°
2026-05-06 23:51 -3.01897 -44.11714 10286 ft 279 kts 303°
2026-05-06 23:51 -3.00782 -44.13246 10163 ft 267 kts 302°
2026-05-06 23:51 -2.99723 -44.14701 10046 ft 256 kts 302°
2026-05-06 23:52 -2.98691 -44.16121 9810 ft 250 kts 302°
2026-05-06 23:52 -2.97675 -44.17520 9530 ft 247 kts 302°
2026-05-06 23:52 -2.96667 -44.18910 9192 ft 246 kts 302°
2026-05-06 23:52 -2.95662 -44.20293 8867 ft 245 kts 302°
2026-05-06 23:53 -2.94654 -44.21686 8485 ft 250 kts 305°
2026-05-06 23:53 -2.93615 -44.23117 8141 ft 260 kts 305°
2026-05-06 23:53 -2.92540 -44.24595 7782 ft 262 kts 304°
2026-05-06 23:53 -2.91466 -44.26073 7402 ft 262 kts 304°
2026-05-06 23:54 -2.90394 -44.27547 7057 ft 261 kts 302°
2026-05-06 23:54 -2.89336 -44.29002 6714 ft 257 kts 302°
2026-05-06 23:54 -2.88295 -44.30434 6385 ft 250 kts 302°
2026-05-06 23:54 -2.87296 -44.31806 6084 ft 238 kts 302°
2026-05-06 23:55 -2.86341 -44.33119 5806 ft 228 kts 302°
2026-05-06 23:55 -2.85421 -44.34384 5506 ft 223 kts 302°
2026-05-06 23:55 -2.84531 -44.35608 5245 ft 218 kts 302°
2026-05-06 23:55 -2.83654 -44.36814 4942 ft 212 kts 302°
2026-05-06 23:56 -2.82797 -44.37993 4658 ft 208 kts 302°
2026-05-06 23:56 -2.81894 -44.39130 4337 ft 212 kts 314°
2026-05-06 23:56 -2.80530 -44.39773 4151 ft 228 kts 343°
2026-05-06 23:56 -2.78898 -44.39651 3842 ft 250 kts 15°
2026-05-06 23:57 -2.77427 -44.38734 3715 ft 247 kts 32°
2026-05-06 23:57 -2.76128 -44.37687 3747 ft 235 kts 33°
2026-05-06 23:57 -2.74893 -44.36673 3740 ft 223 kts 33°
2026-05-06 23:57 -2.73736 -44.35734 3834 ft 215 kts 32°
2026-05-06 23:58 -2.72565 -44.34807 3428 ft 214 kts 31°
2026-05-06 23:58 -2.71354 -44.33862 2497 ft 229 kts 31°
2026-05-06 23:58 -2.70127 -44.32946 2271 ft 196 kts 36°
2026-05-06 23:58 -2.69128 -44.32201 2270 ft 168 kts 42°
2026-05-06 23:59 -2.68289 -44.31483 2209 ft 158 kts 43°
2026-05-06 23:59 -2.67459 -44.30798 2256 ft 154 kts 41°
2026-05-06 23:59 -2.66653 -44.30063 2172 ft 158 kts 45°
2026-05-06 23:59 -2.65847 -44.29321 1957 ft 153 kts 43°
2026-05-07 00:00 -2.65029 -44.28668 1600 ft 145 kts 39°
2026-05-07 00:00 -2.64264 -44.28067 1307 ft 137 kts 41°
2026-05-07 00:00 -2.63539 -44.27464 1069 ft 134 kts 38°
2026-05-07 00:00 -2.62820 -44.26875 966 ft 136 kts 43°
2026-05-07 00:01 -2.62075 -44.26260 790 ft 141 kts 40°
2026-05-07 00:01 -2.61319 -44.25653 618 ft 137 kts 39°
2026-05-07 00:01 -2.60585 -44.25050 429 ft 136 kts 40°
2026-05-07 00:01 -2.59848 -44.24460 240 ft 136 kts 39°
2026-05-07 00:02 -2.59128 -44.23882 167 ft 122 kts 39°
2026-05-07 00:02 -2.58634 -44.23484 158 ft 51 kts 38°
2026-05-07 00:02 -2.58510 -44.23398 156 ft 12 kts
2026-05-07 00:02 -2.58445 -44.23446 155 ft 12 kts 294°
2026-05-07 00:03 -2.58463 -44.23526 157 ft 12 kts 250°
2026-05-07 00:03 -2.58485 -44.23589 158 ft 4 kts 258°
2026-05-07 00:03 -2.58475 -44.23599 153 ft 2 kts 330°
2026-05-07 00:03 -2.58455 -44.23602 151 ft 4 kts 347°
2026-05-07 00:04 -2.58428 -44.23611 159 ft 0 kts 341°
2026-05-07 00:04 -2.58425 -44.23612 159 ft 0 kts 340°